KSAN

San Diego International Airport

Airport
ICAO code
KSAN
IATA Code
SAN
Summary
ICAO Region
NAM
ICAO Territory
Location

San Diego, California

Serving
San Diego County
Elevation
17 ft
Coordinates
32° 44' 0" N , 117° 11' 26" W
KCC
Airport RE
Engineered Materials Arresting System
Airport WX
Fog
Metar
KSAN 251351Z 01003KT 8SM OVC014 19/16 A3003 RMK AO2 SLP170 T01890156 $

Description

International airport serving San Diego, California, USA.

Climatology

San Diego enjoys mild, sunny weather throughout the year. Since the San Diego area straddles areas of Mediterranean climate (Csa) to the north, and Semi-arid climate (BSh) to the south and east, the climate is often referred to as "Mediterranean" or "arid-mediterranean". Fog is common in May and June.

Runways

Designator Length Width Surface Rops
9/27 2865 61 PEM Yes/Yes

Airport map

Aerial View

SKYbrary Partners:

Safety knowledge contributed by: